Location: Castelbiague
(43.0361°N, 0.9246°E)
Time: 10:28:53
(UTC+00:00)

Cosmos 1802 Rocket - Pass Details

Date: 17 June 2021
Orbit: 955 x 1010 km, 82.9° (Epoch: 03 August)

Event Time Altitude Azimuth Distance (km) Brightness Sun altitude
Rises 21:10:27 0° 355° (N) 3,681 8.0 -13.3°
Reaches altitude 10° 21:13:00 10° 359° (N) 2,738 7.2 -13.6°
Maximum altitude 21:19:12 59° 79° (E) 1,129 4.2 -14.3°
Enters shadow 21:23:34 20° 153° (SSE) 2,097 5.1 -14.7°
